[[{"header":{"parameterUnit":"m.s-1","parameterCategory":1,"la1":30.2991,"la2":30.254,"lo1":-89.0895,"lo2":-89.0444,"dy":0.0017,"dx":0.0017,"nx":28,"ny":28,"refTime":"2023-10-22T21:00:00:Z","depth":0,"parameterNumber":2,"parameterNumberName":"U-component_of_WINDS"},"data":[0,0,0,0,0,0,0,0,0,0,0,0,0,0,0,0,0,0,0,0,0,0,0,0,0,0,0,0,0,0,0,0,0,0,0,0,0,0,0,0,0,0,0,0,0,0,0,0,0,0,0,0,0,0,0,0,0,0,-4.8436,-4.8437,0,-4.8516,-4.8517,-4.8518,-4.8423,-4.8419,-4.8416,-4.8412,-4.849,-4.8496,-4.8501,0,0,0,0,0,0,0,0,0,0,0,0,0,-4.8197,-4.8202,-4.8436,-4.8437,-4.8438,-4.8516,-4.8517,-4.8518,-4.8423,-4.8419,-4.8415,-4.8411,-4.8489,-4.8495,-4.8501,0,0,0,0,0,0,0,0,0,0,0,0,0,-4.8291,-4.8204,-4.8436,-4.84,-4.8398,-4.8516,-4.8517,-4.8519,-4.8424,-4.8419,-4.8414,-4.8409,-4.8486,-4.8494,-4.8502,-4.8658,0,0,-4.8527,-4.853,0,0,0,0,0,0,0,0,-4.8286,-4.83,-4.8404,-4.8403,-4.84,-4.8454,-4.8462,-4.8565,-4.8426,-4.8414,-4.8412,-4.8406,-4.8482,-4.849,-4.8517,-4.8662,-4.8665,-4.8528,-4.8532,-4.8536,-4.8538,0,0,0,0,0,0,0,-4.828,-4.8296,-4.8468,-4.8406,-4.8404,-4.8379,-4.8387,-4.8481,-4.8477,-4.8415,-4.8408,-4.8419,-4.848,-4.8509,-4.8518,-4.8666,-4.8527,-4.8534,-4.8539,-4.8543,-4.8944,-4.895,0,0,0,0,0,0,-4.8278,-4.8292,-4.8465,-4.847,-4.8329,-4.8388,-4.8396,-4.8442,-4.8476,-4.8476,-4.8424,-4.8414,-4.8498,-4.8509,-4.852,-4.8706,-4.8536,-4.8543,-4.8548,-4.8938,-4.8945,-4.8952,0,0,0,0,0,0,-4.8273,-4.8294,-4.8462,-4.8379,-4.8399,-4.8398,-4.845,-4.8447,-4.8476,-4.8482,-4.8481,-4.8454,-4.8494,-4.8509,-4.8625,-4.8707,-4.8547,-4.8554,-4.8931,-4.894,-4.8948,-4.9078,0,0,0,0,0,0,-4.8267,-4.8293,-4.8353,-4.8381,-4.8403,-4.8567,-4.8455,-4.8452,-4.8491,-4.8479,-4.8511,-4.8511,-4.8491,-4.8614,-4.8633,-4.8715,-4.8561,-4.8924,-4.8935,-4.8946,-4.9066,-4.909,-4.911,0,0,0,0,0,-4.8259,-4.8385,-4.8357,-4.8378,-4.8479,-4.8572,-4.8584,-4.856,-4.8498,-4.8557,-4.8562,-4.851,-4.8695,-4.8626,-4.8647,-4.8733,-4.8919,-4.8932,-4.8945,-4.9056,-4.9085,-4.911,0,0,0,0,0,0,-4.8364,-4.8388,-4.8357,-4.8496,-4.8533,-4.8555,-4.863,-4.8592,-4.8645,-4.8632,-4.8599,-4.8607,-4.8731,-4.8744,-4.8666,-4.8887,-4.8796,-4.8814,-4.8874,-4.8901,-4.8923,-4.8917,-4.8567,0,0,0,0,0,-4.8405,-4.848,-4.8495,-4.8617,-4.8637,-4.8631,-4.867,-4.8649,-4.8685,-4.87,-4.8712,-4.8748,-4.8814,-4.8858,-4.892,-4.9068,-4.9073,-4.9137,-4.9159,-4.9177,-4.9193,-4.9273,-4.9302,-4.8995,-4.8995,-4.8994,0,0,-4.8487,-4.8509,-4.8558,-4.8639,-4.8665,-4.8742,-4.8644,-4.873,-4.8787,-4.8712,-4.8823,-4.8834,-4.8871,-4.9005,-4.9064,-4.9019,-4.9279,-4.9194,-4.9208,-4.9214,-4.9289,-4.9318,-4.9344,-4.9004,-4.9002,-4.9001,0,0,-4.8677,-4.8702,-4.8806,-4.8835,-4.8876,-4.8872,-4.8897,-4.8926,-4.8931,-4.9042,-4.8988,-4.9055,-4.9169,-4.9199,-4.9229,-4.9433,-4.9387,-4.9453,-4.9568,-4.9646,-4.9671,-4.9692,-4.9765,-4.9792,-4.9469,-4.947,-4.947,0,-4.8774,-4.889,-4.8864,-4.8955,-4.8992,-4.893,-4.9036,-4.9064,-4.9123,-4.9149,-4.9099,-4.9243,-4.9263,-4.9403,-4.9453,-4.9479,-4.9507,-4.9449,-4.967,-4.9691,-4.971,-4.9779,-4.9807,-4.9477,-4.9476,-4.9476,-4.9475,0,-4.9007,-4.9089,-4.9168,-4.9229,-4.9275,-4.9372,-4.9361,-4.941,-4.9386,-4.9387,-4.9501,-4.9524,-4.959,-4.9621,-4.9597,-4.9758,-4.9729,-4.9675,-4.9583,-4.9748,-4.9812,-4.9838,-4.9489,-4.9486,-4.9483,-4.9481,0,0,-4.9265,-4.9312,-4.9342,-4.9369,-4.9411,-4.9473,-4.9568,-4.9634,-4.9677,-4.972,-4.9798,-4.9898,-4.9849,-4.9883,-4.9861,-4.993,-5.0091,-4.9867,-4.9868,-4.9908,-5.0271,-5.0311,-5.0343,-5.0062,-5.0067,-5.0071,-5.0268,0,-4.9456,-4.9622,-4.9602,-4.9761,-4.9836,-4.9779,-4.9862,-4.9896,-4.99,-4.9963,-4.9966,-5.0037,-4.9966,-4.9987,-5.0053,-5.0058,-5.0164,-5.0043,-5.0134,-5.0137,-5.0126,-5.0376,-5.0419,-5.0604,-5.0293,-5.0297,-5.03,0,-4.97,-4.9755,-4.9921,-4.9953,-4.9984,-5.0059,-5.0118,-5.018,-5.0218,-5.0215,-5.0256,-5.0223,-5.0317,-5.0225,-5.0355,-5.0273,-5.0309,-5.0318,-5.0324,-5.0331,-5.0228,-5.039,-5.0662,-5.069,-5.0339,-5.0336,-5.0333,0,-4.9872,-4.9986,-5.0101,-5.0126,-5.0166,-5.022,-5.0239,-5.0272,-5.0314,-5.0366,-5.0392,-5.0454,-5.0487,-5.0536,-5.052,-5.0454,-5.0654,-5.056,-5.0654,-5.0654,-5.0697,-5.0695,-5.0979,-5.0721,-5.0721,-5.072,-5.072,0,-5.0086,-5.019,-5.0179,-5.0249,-5.0364,-5.0341,-5.0455,-5.0467,-5.0497,-5.0568,-5.0523,-5.059,-5.0566,-5.0632,-5.0621,-5.073,-5.0745,-5.0746,-5.0741,-5.075,-5.075,-5.0772,-5.0759,-5.0728,-5.0726,-5.0725,-5.0723,0,-5.0297,-5.0293,-5.0415,-5.0444,-5.0454,-5.0537,-5.0562,-5.0628,-5.0629,-5.072,-5.0739,-5.074,-5.0816,-5.0806,-5.0889,-5.0882,-5.1018,-5.0998,-5.1006,-5.1002,-5.1096,-5.1088,-5.1404,-5.1445,-5.1161,-5.1164,-5.1166,0,-5.0434,-5.0513,-5.0552,-5.0598,-5.0621,-5.0695,-5.0738,-5.0718,-5.0764,-5.0815,-5.0875,-5.0947,-5.1004,-5.1127,-5.1134,-5.1198,-5.1179,-5.1286,-5.1188,-5.1195,-5.1181,-5.1177,-5.1185,-5.1305,-5.1308,-5.1311,-5.1313,0,-5.0678,-5.0673,-5.0737,-5.0803,-5.0856,-5.0905,-5.095,-5.0989,-5.0974,-5.1028,-5.1106,-5.1151,-5.1238,-5.131,-5.137,-5.1388,-5.1349,-5.1344,-5.1369,-5.1379,-5.138,-5.1381,-5.1059,-5.1337,-5.1334,-5.1333,-5.1331,-5.133,-5.0855,-5.0924,-5.0963,-5.1036,-5.1069,-5.1112,-5.1177,-5.1187,-5.1252,-5.1322,-5.1307,-5.1395,-5.1432,-5.151,-5.1535,-5.1603,-5.1563,-5.16,-5.1609,-5.1618,-5.163,-5.137,-5.1614,-5.1613,-5.1612,-5.1612,-5.1611,0,-5.1097,-5.112,-5.1188,-5.1254,-5.1312,-5.1272,-5.132,-5.1371,-5.145,-5.1489,-5.1546,-5.1637,-5.1707,-5.1721,-5.1788,-5.184,-5.1823,-5.1858,-5.1854,-5.1859,-5.1661,-5.1633,-5.187,-5.187,-5.187,-5.187,-5.187,-5.187,-5.123,-5.1344,-5.1344,-5.1473,-5.1495,-5.1583,-5.1614,-5.1653,-5.1684,-5.1788,-5.1847,-5.1857,-5.1886,-5.1955,-5.2017,-5.2019,-5.2046,-5.2088,-5.2083,-5.1898,-5.1872,-5.1848,-5.1821,-5.2094,-5.2095,-5.2275,-5.2277,-5.2278]},{"header":{"parameterUnit":"m.s-1","parameterCategory":1,"la1":30.2991,"la2":30.254,"lo1":-89.0895,"lo2":-89.0444,"dy":0.0017,"dx":0.0017,"nx":28,"ny":28,"refTime":"2023-10-22T21:00:00:Z","depth":0,"parameterNumber":3,"parameterNumberName":"V-component_of_WINDS"},"data":[0,0,0,0,0,0,0,0,0,0,0,0,0,0,0,0,0,0,0,0,0,0,0,0,0,0,0,0,0,0,0,0,0,0,0,0,0,0,0,0,0,0,0,0,0,0,0,0,0,0,0,0,0,0,0,0,0,0,0.0349,0.0348,0,0.0284,0.0283,0.0282,0.0228,0.0227,0.0226,0.0226,0.0162,0.016,0.0159,0,0,0,0,0,0,0,0,0,0,0,0,0,0.043,0.0429,0.0349,0.0348,0.0347,0.0284,0.0283,0.0282,0.0228,0.0227,0.0226,0.0226,0.0162,0.0161,0.0159,0,0,0,0,0,0,0,0,0,0,0,0,0,0.0383,0.0428,0.0349,0.0312,0.0308,0.0284,0.0283,0.0282,0.0228,0.0227,0.0226,0.0225,0.0162,0.0161,0.0159,0.0166,0,0,0.0154,0.0153,0,0,0,0,0,0,0,0,0.0386,0.038,0.0319,0.0315,0.031,0.0263,0.0288,0.0243,0.0228,0.0259,0.0226,0.0225,0.0196,0.0192,0.0181,0.0163,0.016,0.0154,0.0152,0.0152,0.0151,0,0,0,0,0,0,0,0.0389,0.0382,0.0323,0.0318,0.0313,0.0301,0.0293,0.0279,0.0233,0.0256,0.0252,0.0245,0.0194,0.0183,0.0179,0.0159,0.0154,0.0152,0.0151,0.015,0.0147,0.0148,0,0,0,0,0,0,0.0397,0.0386,0.0325,0.0321,0.0347,0.03,0.0291,0.0279,0.0233,0.0225,0.0246,0.0242,0.0187,0.0182,0.0177,0.0185,0.0152,0.015,0.0149,0.0146,0.0147,0.0149,0,0,0,0,0,0,0.0399,0.0393,0.0328,0.0352,0.0343,0.0299,0.0286,0.0278,0.0268,0.0225,0.0217,0.0243,0.0186,0.0179,0.017,0.0182,0.0149,0.0148,0.0145,0.0147,0.0148,0.0199,0,0,0,0,0,0,0.0402,0.0394,0.0395,0.0353,0.0342,0.0321,0.0287,0.0278,0.0264,0.026,0.0221,0.0213,0.0185,0.0173,0.0168,0.0179,0.0146,0.0144,0.0146,0.0148,0.0196,0.0202,0.0207,0,0,0,0,0,0.0405,0.0411,0.0395,0.0388,0.0342,0.0321,0.0315,0.0281,0.0266,0.0267,0.0241,0.0215,0.0181,0.0172,0.0167,0.0177,0.0143,0.0145,0.0147,0.0194,0.0201,0.0207,0,0,0,0,0,0,0.0456,0.0405,0.0386,0.0379,0.0355,0.0312,0.0313,0.0289,0.027,0.0266,0.0225,0.0217,0.0213,0.0193,0.0185,0.0183,0.0159,0.016,0.0196,0.0202,0.0208,0.0214,0.0145,0,0,0,0,0,0.0467,0.0453,0.0409,0.0407,0.0396,0.0357,0.0346,0.0322,0.0296,0.0286,0.0258,0.0235,0.0219,0.0209,0.0192,0.0193,0.0185,0.0197,0.0203,0.0208,0.021,0.0212,0.0218,0.0156,0.0156,0.0156,0,0,0.0488,0.0458,0.0452,0.0417,0.0395,0.0384,0.0349,0.0337,0.0329,0.0284,0.0274,0.0253,0.0224,0.0221,0.0218,0.0204,0.0225,0.021,0.0214,0.0214,0.0215,0.0221,0.0226,0.0157,0.0157,0.0157,0,0,0.0521,0.0497,0.0494,0.0473,0.0441,0.0415,0.0415,0.0376,0.0361,0.035,0.0317,0.0307,0.028,0.0261,0.0248,0.0278,0.0255,0.0274,0.0303,0.0306,0.0311,0.0315,0.0328,0.0333,0.0275,0.0275,0.0276,0,0.0552,0.0532,0.0495,0.0486,0.0473,0.0432,0.043,0.0412,0.0377,0.0369,0.0355,0.0322,0.0299,0.0292,0.03,0.029,0.029,0.0278,0.0313,0.0316,0.032,0.0332,0.0337,0.0278,0.0278,0.0278,0.0277,0,0.0574,0.0561,0.0562,0.053,0.0516,0.0511,0.0474,0.0466,0.0443,0.042,0.0411,0.0383,0.0361,0.0357,0.0334,0.0348,0.0341,0.032,0.0295,0.0329,0.034,0.0344,0.0282,0.0281,0.028,0.028,0,0,0.0637,0.0585,0.0587,0.0573,0.0535,0.0525,0.0519,0.0498,0.0492,0.0469,0.0465,0.0444,0.0426,0.0411,0.0387,0.0389,0.0418,0.0368,0.0367,0.0381,0.0434,0.0452,0.0458,0.0401,0.0402,0.0402,0.0438,0,0.0666,0.0653,0.062,0.0617,0.0607,0.0569,0.0564,0.0542,0.052,0.0509,0.0485,0.0472,0.0447,0.0439,0.0439,0.0414,0.0428,0.0411,0.0399,0.0399,0.041,0.0463,0.0481,0.0516,0.0441,0.0442,0.0443,0,0.0698,0.0679,0.0676,0.0642,0.0636,0.0632,0.0611,0.06,0.0575,0.056,0.0545,0.0518,0.0512,0.0488,0.048,0.047,0.0463,0.045,0.0451,0.045,0.0425,0.0467,0.0526,0.0532,0.0448,0.0448,0.0448,0,0.0749,0.0721,0.0717,0.0705,0.0665,0.0664,0.0647,0.0621,0.0611,0.0593,0.0587,0.0568,0.0559,0.0546,0.0516,0.0501,0.0513,0.0486,0.0502,0.0503,0.0508,0.0508,0.0569,0.05,0.05,0.0499,0.0499,0,0.0786,0.0786,0.0739,0.0736,0.0736,0.0699,0.0701,0.068,0.0658,0.0652,0.0618,0.0613,0.0573,0.0564,0.0541,0.054,0.0535,0.0524,0.0518,0.0529,0.053,0.0525,0.0523,0.0501,0.05,0.05,0.05,0,0.0842,0.081,0.0803,0.0766,0.0757,0.0759,0.0728,0.0725,0.0702,0.0695,0.0692,0.0656,0.0644,0.0613,0.0592,0.0577,0.0584,0.0571,0.0593,0.0589,0.0609,0.0609,0.067,0.0678,0.0601,0.0602,0.0603,0,0.0869,0.0869,0.0833,0.0826,0.0811,0.0801,0.0791,0.0756,0.0747,0.072,0.0721,0.0707,0.0694,0.0677,0.065,0.0636,0.0624,0.0647,0.0622,0.0633,0.0628,0.063,0.0631,0.0653,0.0654,0.0655,0.0656,0,0.0922,0.0907,0.0894,0.0876,0.0866,0.085,0.0832,0.0829,0.079,0.0782,0.077,0.076,0.0741,0.0728,0.071,0.0694,0.067,0.0664,0.0667,0.0679,0.0693,0.0689,0.0611,0.0663,0.0662,0.0661,0.0661,0.0661,0.0966,0.0965,0.0941,0.0928,0.0911,0.0896,0.0893,0.087,0.0859,0.0841,0.082,0.0811,0.0789,0.0762,0.0748,0.0742,0.0729,0.0733,0.0735,0.0737,0.0743,0.0692,0.0738,0.0738,0.0737,0.0737,0.0737,0,0.102,0.1002,0.0991,0.0968,0.0959,0.0936,0.0916,0.0911,0.0903,0.0884,0.0873,0.0861,0.0849,0.0822,0.0808,0.0808,0.0797,0.0806,0.0807,0.0805,0.0754,0.0754,0.0816,0.0816,0.0816,0.0816,0.0816,0.0816,0.1046,0.1045,0.1027,0.1018,0.1001,0.0992,0.0983,0.097,0.0955,0.0943,0.0933,0.0916,0.0894,0.0879,0.0868,0.086,0.0858,0.0872,0.0861,0.0815,0.0808,0.0801,0.08,0.0871,0.0871,0.0912,0.0913,0.0913]}]]